Location: Fauquembergues
(50.6005°N, 2.0987°E)
Time: 10:48:51
(UTC+00:00)

GRACE-FO 1 - Pass Details

Date: 14 July 2020
Orbit: 480 x 507 km, 89.0° (Epoch: 06 August)

Event Time Altitude Azimuth Distance (km) Brightness Sun altitude
Rises 01:09:30 0° 359° (N) 2,573 9.7 -16.0°
Reaches altitude 10° 01:11:36 10° 360° (N) 1,682 8.5 -15.9°
Maximum altitude 01:15:16 88° 268° (W) 491 4.5 -15.8°
Enters shadow 01:16:49 33° 183° (S) 839 5.2 -15.7°
